{"data":{"norad_id":69937,"intl_designator":"2026-156BW","name":"LEONAV-1","alt_names":[],"object_type":"PAYLOAD","status":"ACTIVE","operator":null,"country":"UAE","launch_date":"2026-07-07","launch_site_code":"AFWTR","launch_vehicle":null,"mission":null,"orbit_class":"UNKNOWN","rcs_meters":null,"size_class":null,"mass_kg":null,"dimensions":null,"purposes":[],"wikipedia_slug":null,"has_3d_model":false,"image_url":null,"decayed_at":null,"tle_current":{"epoch":"2026-09-20T03:30:33.541056Z","epoch_age_seconds":48370,"freshness":"FRESH","line1":"1 69937U 26156BW  26263.14622154  .00001887  00000+0  18702-3 0  9992","line2":"2 69937  97.7428 162.4449 0009143 266.3684  93.6490 14.92961943 11163","mean_motion":14.92961943,"eccentricity":0.0009143,"inclination_deg":97.7428,"raan_deg":162.4449,"arg_perigee_deg":266.3684,"mean_anomaly_deg":93.649,"bstar":0.00018702,"rev_number":1116,"period_min":96.452559072365,"perigee_km":582.33609971785,"apogee_km":595.07566861584,"semimajor_km":6966.8428841668,"source":"CELESTRAK","updated_at":"2026-09-20T09:00:25.208861Z"}}}